GFSNE_500_spd_105.txt.gz
Wind_Speed
6 6 10 7 7 8 9 9 7 8 12 9 10 12 15 9 12 11 12 13 14 15 16 17 18 19 21 18 14 14 16 16 18 20 22 22 21 22
9 10 10 10 11 10 10 7 5 6 9 9 9 11 10 11 11 12 12 15 16 15 17 16 16 18 20 16 14 11 13 15 16 18 20 20 20 20
11 11 11 9 11 12 13 12 11 9 9 9 9 11 11 12 12 13 14 15 16 14 14 14 13 16 18 14 11 11 12 15 15 17 18 18 17 17
10 11 11 13 13 11 10 12 14 13 11 10 11 9 10 9 12 13 15 14 16 14 14 16 15 15 17 12 8 9 11 14 16 17 17 16 16 16
11 12 12 13 14 13 13 12 13 14 12 12 14 13 10 11 11 12 12 12 12 12 13 14 13 12 13 12 7 8 10 12 14 14 15 15 15 15
15 14 13 14 14 15 16 16 15 13 13 15 16 17 16 13 12 13 12 13 13 13 14 13 13 11 12 14 11 11 10 9 10 11 12 12 13 13
20 18 15 16 18 18 18 17 17 18 17 16 17 17 18 18 16 13 13 15 16 14 17 15 15 13 11 13 15 12 14 15 11 10 10 9 9 9
22 19 17 21 22 22 21 20 19 19 20 20 21 21 21 19 19 18 19 19 21 17 16 18 15 18 18 15 16 17 16 15 16 13 11 10 10 10
25 25 23 25 24 24 23 23 24 24 23 23 24 23 24 21 20 20 19 18 20 23 19 21 19 20 19 20 19 20 22 21 18 18 17 16 15 15
31 30 29 29 29 29 30 30 30 29 29 28 28 28 28 28 25 22 22 22 23 24 20 20 23 23 24 23 21 21 22 25 24 22 20 20 20 22
36 36 36 35 33 32 32 32 33 33 34 34 33 33 34 33 29 29 28 27 28 29 30 27 26 24 26 28 27 25 25 25 26 27 28 26 24 23
30 39 40 36 35 37 36 33 35 38 39 37 37 36 36 37 37 34 34 33 32 34 38 35 33 32 27 31 31 29 30 30 29 28 29 29 29 29
25 25 27 29 31 31 31 30 33 37 39 40 43 44 44 42 42 41 40 41 36 38 39 41 40 38 36 31 34 35 34 35 34 34 34 34 33 33
33 31 29 28 27 27 29 30 29 29 29 29 31 35 39 43 44 43 42 43 45 41 38 42 41 42 40 40 39 39 40 39 39 38 37 39 39 39
31 30 30 30 31 31 30 32 29 29 31 32 32 32 32 35 37 38 40 39 40 43 45 41 38 36 40 43 41 43 44 46 47 43 41 42 43 44
37 37 36 36 36 36 37 36 37 36 37 37 37 35 36 36 37 37 36 39 40 42 43 44 44 41 39 40 40 38 44 48 47 51 52 50 48 47
44 44 45 43 43 44 44 42 43 44 44 44 44 44 44 44 46 46 47 46 45 45 46 48 48 47 47 45 44 45 44 44 44 44 46 44 45 46
52 52 51 50 51 50 51 50 50 51 51 51 52 54 54 54 56 57 58 57 57 57 57 56 55 54 56 57 54 51 51 51 50 51 52 49 45 47
57 58 58 59 59 59 58 59 61 60 60 61 60 60 62 62 63 66 67 66 65 65 65 66 65 63 61 61 61 64 65 63 59 57 58 58 53 49
62 59 59 62 63 65 66 66 66 66 66 66 66 67 68 70 71 71 70 68 68 70 70 70 70 70 69 68 65 59 64 65 67 67 67 67 65 60
59 60 63 63 62 63 65 66 68 66 66 67 69 70 70 70 72 73 73 73 71 70 69 70 70 71 72 73 72 68 68 70 71 71 70 70 68 65
61 61 59 59 57 56 56 59 61 64 65 67 68 68 68 68 69 70 71 70 71 73 74 74 75 75 76 76 75 75 74 73 76 77 79 81 81 78
51 51 51 52 53 55 56 57 59 60 62 64 64 65 66 67 68 70 71 73 74 75 75 77 79 80 82 83 83 83 83 81 80 79 81 84 85 85

GFSNE_500_spd_108.txt.gz
Wind_Speed
10 11 6 5 6 6 7 8 9 10 12 14 14 11 10 10 11 11 11 13 14 16 18 14 12 14 14 11 10 10 12 15 16 18 19 19 18 18
10 12 10 9 7 8 7 6 7 9 11 13 14 14 11 11 12 14 13 15 15 14 15 13 13 14 15 11 10 8 10 12 14 16 16 17 16 16
12 10 10 11 11 10 9 8 8 9 11 12 11 11 11 10 13 14 15 17 17 16 14 10 13 15 14 10 10 10 12 13 15 14 15 15 16 15
13 12 11 12 14 12 12 12 9 9 9 12 11 10 11 12 13 14 16 18 18 17 15 13 11 14 15 12 8 8 9 12 14 14 13 13 13 14
15 15 13 13 13 13 14 14 14 11 11 13 12 10 11 13 13 15 15 17 15 16 16 16 13 11 10 11 8 7 8 9 11 13 12 12 12 12
20 18 17 15 15 15 15 15 14 14 14 15 14 14 13 14 14 16 16 17 17 16 16 15 16 14 11 10 11 11 11 12 11 10 12 11 11 11
17 16 19 19 16 19 17 17 16 16 16 17 17 18 17 17 17 17 19 20 18 18 21 18 17 16 16 15 15 13 13 15 15 13 12 11 11 11
24 18 24 26 23 23 21 21 19 21 20 20 21 22 20 20 20 20 21 22 25 17 23 19 18 17 17 17 17 18 18 16 16 18 18 17 15 15
31 30 30 30 26 25 25 25 22 21 22 25 26 25 24 21 20 21 22 24 25 25 22 23 21 21 21 21 20 20 21 20 20 21 20 20 20 21
34 31 31 30 31 30 29 29 28 29 30 31 31 29 29 27 26 26 27 28 27 26 24 25 26 25 27 28 26 24 24 23 23 23 25 26 25 25
32 34 34 33 34 34 37 35 33 33 33 33 33 33 33 30 31 31 29 29 33 34 28 29 27 26 30 32 33 32 30 29 29 28 27 27 28 29
26 33 34 31 35 39 40 39 36 36 36 37 37 36 37 38 39 37 35 36 38 39 35 34 33 32 33 36 39 37 38 37 35 33 33 33 31 31
32 32 33 34 33 31 33 37 41 41 39 36 32 32 35 38 38 39 40 41 41 38 37 39 38 38 38 36 37 41 42 44 42 41 39 40 39 38
37 37 38 40 39 35 34 32 33 32 32 30 30 32 29 29 30 31 30 29 33 36 39 39 39 39 38 38 40 40 41 46 44 45 44 44 45 44
39 39 39 41 38 37 34 33 35 33 34 34 33 33 33 31 32 33 32 31 32 32 34 35 36 37 36 36 34 36 35 40 42 45 46 47 47 49
43 42 43 42 40 37 35 37 38 37 37 38 37 38 38 38 38 39 40 40 40 42 40 41 43 43 44 45 43 41 41 40 42 42 42 42 43 46
50 47 46 46 46 46 44 44 44 44 44 43 44 44 44 45 47 47 46 47 47 49 51 56 56 55 56 55 54 53 50 51 49 47 47 45 47 46
51 51 51 52 53 52 51 52 50 50 50 51 52 51 53 53 54 56 57 57 58 58 59 60 60 61 63 64 64 63 61 59 59 58 57 55 52 55
55 56 54 57 59 58 57 58 57 58 60 59 60 62 63 63 65 66 66 67 67 66 65 66 66 67 67 66 64 66 66 68 67 65 65 65 62 59
56 58 58 60 63 59 59 62 66 64 63 63 63 64 66 67 69 71 72 72 71 71 71 72 72 73 73 71 68 66 69 69 70 70 69 69 69 67
58 59 61 61 60 60 61 63 64 63 63 65 67 68 67 65 64 65 66 68 70 72 73 75 76 76 76 77 77 76 73 74 75 77 76 76 74 72
55 55 55 55 55 55 56 55 55 56 56 56 57 58 59 60 62 63 64 65 68 69 70 72 74 75 76 77 78 80 81 81 82 84 86 88 88 85
52 52 51 51 51 51 51 51 53 54 55 57 58 59 61 62 64 64 66 68 69 70 71 71 71 72 73 76 78 81 84 86 87 87 88 92 94 95

GFSNE_500_spd_111.txt.gz
Wind_Speed
13 11 10 11 8 6 5 5 8 11 13 13 14 14 14 13 12 14 13 13 12 15 17 16 14 14 14 11 10 9 11 14 16 16 16 15 16 16
14 10 10 12 11 10 8 7 7 9 11 13 13 13 12 14 15 18 17 15 13 14 15 15 13 14 14 12 9 9 11 13 14 15 15 14 15 15
16 15 12 11 11 12 12 10 10 11 12 14 14 13 11 12 13 15 17 18 17 16 15 13 13 13 12 11 10 9 9 12 13 13 14 15 14 14
16 17 16 15 13 13 13 11 12 13 15 16 14 11 12 13 14 14 14 15 16 16 17 16 13 14 15 12 9 9 9 9 13 14 13 13 14 14
20 20 17 16 16 16 15 15 14 12 14 15 15 13 14 15 15 15 16 15 15 16 14 15 14 14 14 14 13 10 10 11 9 10 11 12 12 12
22 25 22 21 18 18 17 15 15 15 16 16 16 17 16 16 16 17 15 15 15 16 17 17 17 17 15 13 13 12 13 14 11 10 9 8 9 12
27 26 23 26 20 20 20 20 20 14 18 20 19 18 17 16 17 18 19 18 16 19 19 19 20 18 20 18 18 17 16 14 15 15 13 12 11 12
29 27 26 24 23 20 21 26 22 20 22 21 24 21 19 20 20 21 21 22 22 17 21 17 20 21 22 20 21 22 21 19 18 19 18 16 16 15
31 24 32 33 30 29 28 27 26 25 26 26 27 25 24 25 27 25 23 25 26 23 25 24 23 24 25 25 25 24 24 25 25 25 22 21 22 21
25 31 32 34 37 33 30 29 29 31 32 31 31 31 29 29 30 30 28 29 26 25 27 26 26 29 32 30 29 29 29 29 30 29 28 26 27 26
27 23 28 30 32 35 35 33 34 35 37 38 35 35 34 34 34 33 33 33 31 30 30 27 29 32 33 32 32 35 35 34 35 34 34 33 32 32
25 27 27 28 33 35 37 38 39 40 41 41 40 39 38 39 39 39 38 38 38 39 38 37 34 33 36 39 39 37 37 37 36 36 37 38 37 37
33 37 37 34 33 32 33 37 37 39 40 40 41 39 36 36 35 34 32 31 30 31 34 37 36 37 37 35 40 37 37 38 39 41 42 41 41 41
38 40 41 41 39 37 35 35 38 40 40 38 38 34 33 31 32 31 31 31 30 29 28 28 30 29 32 31 29 31 37 35 34 35 38 41 43 44
41 42 41 41 42 40 39 37 37 37 36 37 37 37 36 36 35 37 35 35 33 33 32 32 32 33 32 32 33 34 36 40 41 39 40 42 42 45
47 46 46 45 45 44 43 42 40 40 40 41 40 39 39 40 40 40 41 42 42 41 41 42 43 43 45 45 45 46 48 48 49 51 49 49 50 50
48 50 49 47 48 48 49 49 46 45 45 46 47 46 45 45 45 46 46 48 49 51 52 53 53 55 58 58 59 60 60 59 57 56 55 53 54 55
53 54 53 51 51 50 50 51 50 52 52 50 51 49 49 50 51 52 55 55 57 58 59 59 61 62 66 70 71 70 70 69 67 65 63 60 56 60
56 56 56 52 50 55 54 52 53 54 55 58 58 56 55 56 57 59 61 63 61 62 65 67 66 66 64 64 66 69 69 71 72 72 73 72 69 66
55 55 56 56 57 58 60 61 58 60 61 59 59 58 58 59 60 61 63 65 66 66 67 69 71 70 69 69 68 69 72 73 75 76 76 76 77 77
55 55 56 56 56 56 57 58 59 59 59 60 60 59 59 59 59 60 61 62 62 63 63 64 64 66 66 68 69 70 74 75 78 82 83 84 84 83
51 51 52 52 53 54 55 56 56 56 55 54 55 55 55 55 56 56 57 58 60 62 64 65 67 68 70 72 73 75 76 76 76 78 82 86 88 87
55 54 53 52 50 50 50 50 50 51 52 52 52 53 54 56 57 60 62 64 65 66 66 66 67 67 67 68 68 69 69 70 72 68 66 70 77 83

GFSNE_500_spd_114.txt.gz
Wind_Speed
11 11 12 14 14 13 10 9 10 10 11 10 11 12 12 12 12 15 15 12 12 13 14 11 12 11 12 9 8 8 10 15 16 15 15 15 17 17
9 10 9 13 14 13 13 13 12 14 14 13 11 11 12 12 13 14 13 13 10 8 10 11 11 11 11 9 8 7 8 11 14 14 14 14 14 15
11 10 10 12 14 14 16 15 15 16 17 16 14 12 12 12 13 13 14 13 12 12 11 10 9 8 7 7 6 7 8 9 10 12 13 13 13 13
13 14 12 13 14 15 16 17 18 17 17 17 16 14 15 15 15 14 14 15 13 13 12 12 10 9 9 8 5 6 7 8 8 9 9 8 9 10
12 13 14 15 17 18 16 17 18 18 17 18 18 16 15 16 16 16 17 17 16 17 14 14 13 13 12 10 10 11 10 9 8 8 8 9 8 8
17 18 18 19 22 20 19 20 18 17 19 18 18 17 17 16 17 17 17 20 21 22 20 20 19 16 14 13 12 12 12 11 12 12 9 10 10 11
22 21 22 24 24 20 19 19 22 20 16 16 18 19 18 18 17 17 19 20 20 21 20 21 22 20 20 18 17 17 16 17 16 15 15 15 16 14
23 24 23 23 23 25 23 21 21 20 23 20 18 19 18 18 19 19 20 23 24 23 23 23 25 23 22 22 20 20 20 20 19 19 20 19 19 20
27 26 25 24 29 27 29 35 30 27 26 27 26 24 23 25 27 28 27 25 25 28 28 27 29 27 24 25 26 25 24 25 26 24 24 25 24 23
26 25 28 24 29 24 28 31 35 32 30 31 31 31 31 31 32 33 33 32 29 29 30 31 33 35 31 30 29 29 29 29 27 29 30 31 31 30
28 31 32 30 25 28 31 28 33 34 34 36 35 35 37 37 35 36 35 35 34 32 32 33 35 38 40 37 37 36 36 35 36 35 32 31 32 34
26 24 25 24 28 30 29 29 29 31 35 36 37 36 35 35 36 38 40 41 41 41 37 35 34 37 42 44 44 42 41 38 37 38 36 35 34 34
30 29 30 31 34 35 37 38 35 35 36 35 35 35 35 35 35 33 32 29 28 27 28 28 28 29 29 31 36 36 34 36 34 33 35 34 34 33
35 35 35 35 35 36 38 41 41 39 39 39 35 34 36 34 31 31 30 32 31 30 30 30 29 28 27 27 28 31 32 31 33 35 37 40 42 43
44 44 44 45 43 42 42 42 41 41 39 39 41 36 37 36 35 35 34 32 33 35 34 33 35 35 34 34 35 34 36 39 41 43 46 48 49 52
47 48 48 48 51 49 47 47 48 47 46 44 42 43 40 41 41 40 41 42 41 41 41 42 42 43 43 44 45 46 46 47 49 52 54 57 58 59
49 51 51 52 48 47 47 49 49 48 46 47 46 46 46 46 47 47 48 49 49 50 50 50 52 53 54 55 57 58 59 61 62 62 61 63 66 65
53 54 56 55 56 55 56 56 55 53 53 54 52 51 51 51 52 53 54 55 57 57 56 56 58 59 61 61 62 64 66 67 67 67 69 69 66 64
57 56 57 58 58 57 57 59 57 55 51 47 50 53 56 56 58 57 56 56 58 59 62 61 59 61 62 62 65 66 67 68 69 69 70 72 74 73
53 55 58 59 60 60 58 57 55 53 52 54 61 60 57 59 58 58 59 59 60 60 59 59 58 59 61 61 61 63 64 65 66 67 67 68 70 72
50 50 52 54 55 56 57 57 56 55 54 54 55 55 55 55 55 55 56 56 56 57 57 58 58 59 60 61 63 66 70 71 73 74 75 76 77 77
56 56 55 54 53 51 51 52 53 53 53 53 53 53 53 53 53 53 54 54 54 54 55 57 59 62 64 66 68 69 69 69 69 69 71 73 74 74
62 61 60 59 58 56 55 55 55 55 55 54 53 53 52 52 52 51 52 53 54 56 59 61 63 63 64 63 63 63 62 61 61 61 57 55 57 61

GFSNE_500_spd_117.txt.gz
Wind_Speed
13 14 13 12 11 10 10 10 10 11 13 14 15 15 15 15 14 14 13 11 11 12 12 10 9 10 11 9 7 7 8 10 12 13 13 14 16 16
13 13 12 10 11 13 12 13 12 13 14 15 15 14 14 16 16 14 12 10 10 10 10 8 8 7 8 8 6 6 8 9 10 10 10 10 12 14
14 14 13 12 13 13 12 13 12 13 13 15 15 14 14 15 14 15 16 15 14 13 11 10 9 8 8 9 8 8 7 6 6 6 7 7 7 9
14 14 13 14 15 14 15 16 15 15 15 17 14 13 13 14 15 14 14 14 14 14 14 14 13 12 11 11 10 11 11 11 9 7 6 4 3 3
15 15 14 15 15 15 16 17 17 16 17 17 16 13 14 15 16 18 17 14 15 14 15 15 14 13 14 13 13 14 13 12 10 11 11 10 9 8
16 16 17 19 19 19 18 19 23 22 20 20 21 20 15 15 17 18 18 17 16 17 17 17 15 14 12 11 12 14 14 15 14 12 12 13 14 14
19 18 20 20 22 23 19 21 20 20 24 25 20 19 20 21 22 22 19 19 20 21 22 21 21 19 18 17 16 15 15 16 17 18 17 15 15 16
24 21 19 18 22 23 20 20 23 23 23 23 24 24 21 22 24 23 22 23 24 24 23 24 24 24 24 24 23 21 20 20 21 22 21 20 19 20
26 27 25 26 24 24 25 28 27 28 28 30 29 29 30 29 27 27 27 28 30 32 31 32 31 28 28 29 28 28 28 27 26 25 26 27 26 26
31 31 31 31 32 27 29 29 27 26 27 33 32 34 33 32 34 34 34 34 36 35 35 35 38 36 32 33 33 33 33 32 30 30 32 32 32 32
23 24 31 29 32 32 33 33 30 27 28 30 30 32 35 38 39 39 39 38 36 37 38 38 39 41 41 40 38 37 35 36 37 38 37 35 33 32
25 23 24 28 26 27 27 28 29 30 31 31 32 33 32 32 34 36 36 35 33 29 32 36 40 40 38 37 33 32 32 31 32 31 31 31 30 30
25 27 28 29 31 31 34 33 36 37 38 38 36 34 35 35 35 35 35 35 36 31 31 31 30 31 33 34 34 34 32 31 31 31 31 29 28 29
31 33 35 36 37 38 38 38 39 39 39 40 37 36 34 34 35 36 35 34 34 33 33 33 33 32 33 35 36 36 36 36 34 35 37 39 40 39
41 43 45 45 46 47 46 47 47 48 50 47 46 45 44 42 39 38 37 37 36 37 36 36 37 37 36 38 39 39 41 41 41 43 44 45 48 50
46 46 47 48 48 48 48 48 50 49 49 50 50 49 48 45 44 40 40 40 41 42 42 42 43 44 45 45 46 47 48 48 51 53 56 57 59 60
47 47 48 49 50 51 50 52 52 52 50 52 53 54 54 53 51 50 49 47 47 47 48 49 50 51 52 53 54 55 55 56 58 59 61 63 65 66
50 51 53 55 53 54 55 55 54 56 56 56 55 56 54 53 53 50 51 49 49 48 47 47 49 51 53 55 57 60 60 62 63 61 60 62 62 62
50 51 52 54 55 55 56 56 58 55 57 57 54 54 57 54 53 51 53 51 51 55 56 57 58 60 61 63 62 61 60 59 58 59 59 59 61 62
51 50 49 50 50 50 51 53 54 55 55 54 53 54 54 54 55 56 57 59 59 57 57 57 58 58 57 58 58 58 57 56 57 58 60 62 65 69
54 54 54 53 52 51 51 50 50 51 51 52 53 53 54 55 54 53 54 55 55 55 55 56 56 56 56 55 55 55 58 59 62 65 68 69 70 70
61 61 60 60 60 59 58 58 57 57 57 57 56 56 56 55 55 54 54 54 54 55 55 54 54 53 55 56 59 61 63 66 68 69 68 67 65 64
64 64 64 65 64 64 62 61 61 60 59 58 58 58 58 58 58 58 57 58 58 58 56 55 55 57 58 59 62 63 65 66 64 60 59 58 57 58

GFSNE_500_spd_123.txt.gz
Wind_Speed
13 14 14 16 16 15 14 13 12 13 14 9 12 10 14 13 11 10 9 10 11 10 9 10 11 10 9 9 9 9 9 10 11 12 14 14 13 13
18 16 16 15 15 15 15 13 13 13 12 12 11 11 12 13 11 12 12 11 11 11 10 9 9 9 10 10 10 11 10 10 10 9 8 8 10 11
16 16 16 15 15 15 14 14 14 14 13 14 12 10 14 15 14 12 12 9 10 9 10 11 11 12 13 13 13 13 13 12 11 10 10 10 10 9
17 18 18 17 18 17 17 16 15 15 15 16 17 15 15 13 18 17 16 15 11 13 12 12 13 14 15 15 15 15 15 15 15 14 13 13 12 13
21 22 22 21 21 20 20 19 18 18 17 16 19 17 20 18 18 19 19 20 16 16 17 15 16 17 17 16 16 15 16 17 17 16 17 17 16 16
23 22 24 23 23 22 24 23 22 23 23 17 22 19 14 16 17 19 16 20 18 15 17 18 19 18 20 20 20 20 19 20 21 21 19 18 21 19
28 26 26 28 28 27 27 25 25 25 23 19 23 23 20 19 20 22 24 24 22 22 21 21 22 26 24 25 25 25 25 24 24 25 25 25 24 23
31 32 30 29 29 28 28 26 26 24 26 25 27 24 23 26 28 28 28 30 28 30 31 26 26 29 30 28 31 32 31 28 27 28 28 30 30 30
34 35 35 30 32 32 31 30 30 31 31 31 30 31 29 27 27 29 32 32 34 34 37 36 31 27 32 31 32 34 34 33 32 31 32 32 34 35
36 37 36 34 33 35 35 35 36 38 37 35 34 32 32 31 31 32 31 32 32 31 33 35 38 36 34 34 37 31 32 34 35 36 36 40 40 38
43 43 42 40 40 42 38 40 37 34 36 37 34 33 32 32 31 33 32 33 33 33 34 35 32 38 32 30 36 35 33 33 34 34 33 30 31 32
49 48 47 49 45 35 37 41 42 37 31 31 31 29 30 32 34 34 34 34 35 32 35 39 38 39 41 32 32 38 37 35 33 34 35 35 35 34
50 56 56 54 61 57 43 36 32 27 27 27 30 31 32 33 35 37 38 40 41 40 41 38 40 41 43 45 38 38 40 40 38 38 37 40 40 41
54 57 57 51 46 43 37 32 29 29 31 34 35 37 39 39 39 42 43 44 44 44 43 43 42 42 43 45 46 41 43 43 45 44 44 44 45 47
28 25 32 34 33 29 29 30 32 35 38 38 40 42 42 42 39 41 43 44 44 45 46 46 45 46 45 45 48 47 48 47 48 50 52 51 52 53
25 25 27 27 27 28 33 36 39 42 42 41 43 44 45 45 47 48 47 46 47 47 50 50 50 50 50 51 52 52 51 54 55 56 58 59 59 60
41 33 32 35 37 39 38 40 44 49 51 50 49 50 51 53 54 50 49 53 55 55 53 50 54 53 54 54 54 54 57 59 61 65 65 65 65 67
44 43 42 42 43 45 48 51 52 55 55 56 55 52 53 53 53 52 52 55 57 55 54 54 53 54 53 55 58 57 59 63 64 61 61 63 65 66
41 43 44 44 45 47 48 51 53 53 54 55 55 56 55 54 53 55 55 55 55 55 53 52 53 53 54 57 55 56 59 59 60 61 62 63 62 61
46 48 50 51 52 52 53 53 55 54 55 54 56 57 57 57 56 56 56 56 56 55 55 55 55 56 57 57 58 57 59 58 60 60 60 61 61 62
51 52 54 55 57 58 58 58 59 61 61 61 61 61 61 60 60 59 60 60 60 60 61 60 59 61 61 62 63 62 60 61 61 62 61 60 59 59
54 56 58 59 60 61 62 61 61 61 60 60 61 60 60 60 61 59 60 59 59 59 58 58 56 59 59 58 58 58 60 58 59 56 55 55 55 56
55 57 59 61 64 67 68 68 69 68 66 66 65 64 64 63 62 60 58 57 58 57 57 56 55 54 55 57 56 56 54 53 52 53 55 55 56 58

GFSNE_500_spd_129.txt.gz
Wind_Speed
12 12 14 14 15 14 12 11 11 12 11 7 5 7 6 6 7 6 7 8 10 11 10 11 10 11 10 10 12 13 14 14 14 13 11 10 10 11
16 15 17 18 18 14 12 11 9 12 13 9 8 9 10 9 11 7 9 9 6 10 12 13 13 13 12 11 10 10 10 11 12 12 13 12 11 8
17 16 18 17 16 16 13 13 11 12 15 13 10 11 14 14 13 11 10 10 12 10 12 15 14 13 14 13 10 11 13 13 13 12 12 11 11 12
16 15 17 17 17 17 17 16 16 16 16 16 16 14 16 17 16 15 16 13 16 13 14 15 14 13 14 15 12 11 11 14 16 17 18 17 15 14
21 20 18 17 19 20 20 19 18 18 21 20 20 19 20 20 16 15 13 12 17 15 16 19 19 15 18 20 19 16 15 17 19 20 21 20 20 20
22 21 22 22 24 24 23 23 23 23 23 23 24 23 22 21 19 18 17 17 18 21 21 23 20 25 25 22 23 22 21 23 23 23 23 24 23 23
25 25 26 27 28 28 29 30 30 29 28 28 27 25 25 21 22 20 17 18 21 23 21 24 27 28 27 30 30 27 26 28 29 27 28 28 27 25
29 29 29 31 32 31 34 33 33 34 34 32 29 28 28 28 29 26 26 25 25 25 26 23 28 31 32 33 31 32 30 29 30 31 31 31 31 28
32 30 28 35 34 35 33 33 34 37 36 35 35 34 32 33 35 37 38 37 36 32 31 32 32 33 33 34 32 30 31 30 30 31 33 33 31 30
36 39 38 33 32 37 39 38 36 33 36 36 38 38 39 39 40 42 43 45 42 38 40 41 37 34 35 36 34 33 32 31 35 35 34 35 36 36
40 40 40 38 41 41 41 44 47 47 47 46 44 46 48 48 48 48 50 44 47 45 46 43 39 37 35 35 35 37 39 38 37 39 41 40 40 39
45 43 43 44 46 41 39 41 40 44 48 50 49 53 53 52 52 52 50 49 46 45 44 42 36 35 37 39 40 40 42 45 46 43 43 44 43 43
49 47 44 42 44 43 44 47 46 48 50 52 53 57 61 60 60 55 55 53 49 41 36 37 37 39 42 45 46 44 43 43 47 48 45 43 42 42
44 39 42 43 43 43 44 44 44 43 42 48 53 58 49 44 46 50 45 42 39 40 40 39 39 42 45 46 44 44 46 44 45 48 49 50 50 49
43 45 43 43 41 38 38 31 35 34 33 35 37 45 45 39 37 38 41 46 45 43 41 39 41 46 48 50 52 50 52 54 51 50 52 52 52 52
35 34 35 41 43 40 41 34 31 31 35 34 41 44 48 50 49 44 44 46 45 47 48 51 52 55 56 56 56 55 55 53 56 57 58 58 56 55
32 38 41 38 37 40 42 44 48 47 51 53 54 53 52 52 50 50 47 49 49 50 52 54 58 60 61 61 61 61 61 62 65 65 62 63 61 59
33 35 37 39 39 33 35 38 39 40 41 43 46 48 50 52 53 53 54 56 57 58 57 56 55 56 58 57 57 56 56 57 60 60 58 58 57 57
27 29 32 34 36 38 39 38 38 41 43 45 48 50 53 54 56 57 59 60 61 62 62 62 62 60 58 57 59 59 59 58 58 57 57 58 59 60
31 34 37 40 44 47 50 53 53 54 54 55 55 57 59 60 60 61 62 63 64 64 64 64 64 63 62 61 61 61 61 59 59 58 58 58 59 60
37 40 42 45 49 52 55 58 60 61 62 62 63 64 65 64 64 66 67 66 66 66 66 66 65 63 63 63 63 61 58 57 56 57 57 58 58 59
38 39 45 50 54 57 59 62 64 65 66 66 65 65 65 67 67 68 67 65 63 63 63 63 63 63 63 61 59 58 57 56 56 56 56 56 54 51
43 49 54 56 55 54 51 50 51 54 58 59 61 64 65 69 69 70 70 69 66 61 58 57 57 57 56 57 56 54 53 54 55 54 53 50 48 48

GFSNE_500_spd_132.txt.gz
Wind_Speed
10 12 13 14 14 12 13 10 12 12 8 5 8 9 7 9 10 8 7 9 11 11 11 9 10 11 12 12 12 11 10 9 8 8 10 10 10 9
14 15 18 17 16 13 11 11 12 13 11 9 9 9 11 11 10 11 12 13 12 12 14 12 11 13 13 12 14 15 12 11 10 9 9 9 9 10
17 18 18 16 14 11 12 11 13 13 14 13 13 11 13 12 11 12 16 17 17 17 16 16 14 14 14 12 12 15 17 14 13 13 12 12 13 13
19 16 16 17 19 17 14 15 17 16 16 16 17 16 17 17 14 17 17 18 18 15 19 18 16 18 17 15 14 17 19 18 19 17 16 15 16 16
21 20 19 20 20 20 21 20 19 21 21 21 21 18 19 22 19 17 16 17 18 19 18 19 22 20 22 23 21 21 20 23 24 24 23 21 19 18
24 21 21 22 23 24 25 25 26 26 26 27 27 25 24 25 25 21 20 20 21 24 24 25 24 27 27 28 29 28 27 28 27 28 27 25 25 24
24 25 25 26 27 28 29 29 31 32 33 32 33 33 29 27 28 26 24 24 22 21 22 25 28 28 34 35 34 33 33 33 32 30 30 29 27 28
29 29 29 31 30 29 29 32 33 35 35 35 36 36 35 32 31 31 31 30 30 30 29 32 37 38 38 38 39 38 36 35 36 35 32 32 31 31
33 34 33 33 33 33 33 33 32 32 36 38 39 41 38 38 38 35 35 37 36 40 42 42 44 45 43 45 46 46 43 39 37 37 36 34 34 34
35 36 38 36 35 36 40 39 41 39 40 43 44 46 41 44 43 42 43 44 46 46 47 48 48 49 48 49 50 47 46 44 40 39 40 39 39 39
37 40 41 43 44 43 44 42 41 44 42 40 43 45 47 49 51 51 51 54 54 54 54 52 54 53 52 57 55 53 48 45 43 41 41 43 43 43
41 46 43 42 45 46 49 51 51 46 43 44 45 46 45 44 50 52 51 52 55 60 60 57 55 58 59 57 52 45 41 39 44 45 45 46 49 48
46 47 48 46 45 45 42 41 43 42 41 44 47 51 51 51 47 48 51 58 60 62 60 61 57 56 55 48 41 39 38 40 41 45 49 48 46 47
44 44 44 41 44 42 40 40 41 40 42 44 43 42 40 43 42 35 36 41 42 44 45 49 49 49 48 49 49 47 46 46 46 48 50 53 52 49
39 36 33 33 34 36 34 35 40 41 42 39 36 31 30 33 35 40 42 47 44 42 48 49 45 42 46 46 47 48 52 55 58 49 61 62 63 63
26 30 29 26 23 25 27 28 32 31 39 45 44 44 47 47 51 51 53 52 52 54 53 53 50 51 50 55 52 57 54 58 60 62 62 56 54 58
19 22 27 31 33 35 36 36 37 38 38 38 40 42 44 49 52 51 50 52 53 54 56 57 59 62 63 64 65 64 63 59 61 65 64 60 57 57
19 21 23 25 27 28 30 33 36 39 42 45 47 48 49 51 53 55 56 56 58 60 60 62 62 63 63 63 63 62 61 62 63 61 61 60 60 60
16 19 24 27 29 30 30 32 36 40 44 48 52 56 59 61 62 63 64 65 66 66 67 67 66 66 64 64 64 63 63 63 63 63 62 62 62 62
21 24 27 30 31 31 35 43 49 50 52 54 57 61 64 67 67 68 69 69 69 69 69 70 71 70 68 65 64 62 61 61 62 62 62 62 62 62
24 27 32 36 39 42 46 51 52 52 54 57 61 62 61 61 62 64 65 66 67 68 69 69 68 66 65 66 65 63 60 59 59 59 59 59 58 59
28 34 39 41 43 46 48 49 51 55 57 56 56 56 58 61 64 65 66 68 70 68 64 60 58 58 58 58 58 59 58 57 57 56 54 53 51 51
34 37 39 41 45 48 51 54 57 57 53 52 53 55 56 60 64 67 68 66 61 49 43 40 39 42 44 42 47 48 42 49 47 44 45 44 46 46

GFSNE_500_spd_135.txt.gz
Wind_Speed
12 14 13 12 13 13 14 13 13 12 10 11 12 13 12 12 12 12 13 13 14 13 14 14 12 13 11 11 10 9 9 10 12 13 12 9 8 8
15 17 18 17 15 13 11 10 12 12 11 10 11 14 16 14 14 15 17 18 16 15 15 14 14 14 14 12 11 12 11 12 13 15 15 15 14 12
17 19 22 20 14 12 12 12 12 14 14 14 14 15 15 18 20 18 19 22 19 19 16 17 16 14 13 14 12 12 13 14 14 16 18 18 17 17
21 22 21 21 20 18 15 15 16 17 16 16 16 18 20 20 20 20 23 23 22 23 18 19 19 16 19 16 17 19 18 18 19 17 20 23 24 23
22 22 21 22 23 20 19 18 19 21 21 22 23 21 22 24 24 24 23 25 25 24 24 22 23 22 23 24 25 25 28 29 27 25 25 25 26 27
23 23 26 24 24 24 23 24 24 24 26 27 28 29 30 28 28 28 29 28 27 28 27 27 28 27 26 26 25 28 31 33 34 32 32 32 31 31
26 26 23 25 27 28 27 28 28 27 29 29 31 33 32 31 31 30 30 30 30 31 31 31 30 32 31 32 34 36 36 37 36 37 38 37 36 37
28 28 28 29 30 31 31 32 31 30 30 31 31 33 33 34 35 35 33 32 32 35 36 38 38 38 39 43 44 45 45 44 45 45 45 44 43 41
30 28 27 30 30 32 32 34 33 35 37 39 40 40 40 40 41 42 40 36 32 35 38 39 41 44 46 47 48 49 50 51 50 52 53 50 49 47
30 34 34 33 34 35 34 35 38 40 41 44 44 42 45 44 42 45 45 43 43 43 43 45 48 50 52 50 51 54 55 55 58 60 58 55 55 51
36 37 39 39 39 41 40 41 40 41 42 43 45 46 44 44 45 45 45 48 49 48 50 51 52 51 52 52 54 56 55 54 55 56 57 54 55 53
42 43 42 44 43 42 43 46 45 43 42 41 40 41 40 41 43 44 46 48 50 48 52 50 48 52 56 57 56 57 55 45 49 51 54 56 55 54
43 46 49 47 45 44 49 48 47 46 43 39 39 39 41 44 44 43 44 46 47 46 48 52 53 50 51 51 52 50 52 53 55 59 61 62 62 59
41 35 34 39 40 41 42 41 39 38 38 35 32 33 36 41 41 41 44 46 46 42 47 47 45 45 46 47 49 46 50 52 50 48 55 51 56 57
32 36 39 41 38 30 32 31 25 22 25 29 29 31 32 35 36 43 47 47 51 53 53 55 55 52 49 54 53 53 52 53 54 52 62 58 62 58
41 43 43 35 26 23 23 26 30 32 31 32 33 35 38 42 43 44 45 48 48 52 53 54 56 58 59 60 61 62 62 62 62 60 63 62 67 67
6 11 18 22 23 23 23 24 25 27 30 32 34 37 40 43 46 49 51 53 56 58 59 61 63 64 66 67 67 68 67 67 65 67 68 61 59 62
13 14 15 16 18 21 24 27 30 32 33 36 43 48 51 54 55 57 59 61 64 66 67 67 68 69 70 70 70 68 67 67 66 66 61 60 60 61
12 13 17 19 19 21 25 29 33 37 42 46 50 54 55 56 58 62 65 67 67 66 64 64 65 67 67 67 66 65 64 64 64 64 64 65 65 66
15 15 17 18 23 28 31 34 37 41 46 49 52 55 58 61 63 65 66 65 65 65 66 67 68 68 68 65 63 63 62 61 60 61 62 62 63 63
16 19 21 24 28 30 33 36 40 44 47 51 53 55 62 64 63 62 62 62 62 63 66 67 66 63 55 51 50 47 45 47 50 53 55 56 56 56
20 23 26 30 32 35 39 43 46 50 53 54 55 54 53 55 56 56 57 59 61 62 62 60 54 46 43 38 31 34 40 44 45 44 41 43 44 45
26 28 31 35 36 40 43 45 48 52 52 52 53 51 50 50 51 52 54 52 55 54 51 43 38 42 34 33 37 41 37 30 28 25 29 37 37 35

GFSNE_500_spd_138.txt.gz
Wind_Speed
7 9 9 9 12 15 15 15 11 10 11 11 11 12 14 13 13 15 17 16 15 16 15 15 13 12 11 11 11 9 8 9 10 10 10 10 10 9
10 11 11 11 14 16 15 15 13 10 11 10 13 15 16 16 16 18 20 21 19 19 17 18 16 14 13 11 11 10 10 9 11 13 13 12 13 13
13 13 13 14 16 15 13 16 17 15 14 15 15 16 17 17 17 18 20 21 21 21 20 20 20 18 17 15 14 13 14 15 15 15 17 18 17 18
15 17 18 17 18 15 16 16 17 17 18 18 17 19 19 20 21 23 24 24 25 25 25 25 24 23 22 22 19 22 21 20 21 24 22 22 24 24
20 20 20 19 20 20 21 21 19 20 21 21 21 21 23 24 25 26 27 28 29 29 30 27 28 27 28 28 26 26 25 26 23 25 27 29 30 31
24 21 21 20 20 25 24 24 25 25 25 26 25 25 27 27 27 28 30 29 30 31 31 32 32 31 32 30 30 30 30 29 31 32 34 35 37 38
24 25 23 24 24 24 24 26 27 28 28 28 27 26 28 29 30 26 28 31 33 34 35 36 35 35 37 38 39 38 38 39 40 41 40 40 40 42
27 31 25 24 26 28 25 26 28 29 31 31 29 32 32 32 35 32 33 33 35 36 36 35 36 37 38 41 42 42 43 45 45 45 46 48 47 51
29 30 31 31 30 28 30 31 30 31 32 32 34 36 38 39 39 37 39 39 39 41 40 38 36 39 41 43 45 48 48 51 51 50 50 48 48 49
32 32 32 30 32 35 36 35 37 36 38 38 39 37 38 39 38 38 38 38 38 40 40 41 43 44 46 47 48 49 49 49 49 49 49 52 52 52
34 31 34 34 36 36 40 40 38 42 40 39 40 44 41 43 41 42 42 42 43 44 42 47 43 46 43 50 52 50 49 53 55 51 56 58 55 53
35 34 36 39 37 45 48 47 47 45 43 41 44 47 44 46 40 44 41 41 41 42 41 44 44 45 43 47 46 47 54 51 48 44 47 49 50 52
37 41 43 42 43 45 53 36 32 40 39 40 40 41 40 39 33 38 38 35 36 37 40 42 44 47 47 47 47 53 54 54 54 54 49 54 61 61
43 42 43 43 50 51 38 37 39 42 36 33 27 24 22 25 28 31 34 38 40 41 43 46 47 50 54 57 57 57 57 56 52 54 59 61 59 59
45 51 42 42 40 43 44 41 41 26 15 20 22 25 28 29 32 33 35 38 42 45 48 51 53 55 56 58 61 63 64 65 63 64 67 69 68 69
55 60 48 43 39 37 39 22 16 21 21 22 25 28 30 32 35 40 46 49 53 55 57 58 60 62 64 67 68 70 72 72 73 73 71 71 71 69
35 37 44 42 23 13 15 16 17 19 21 24 27 31 35 39 41 45 48 52 54 58 61 65 66 66 67 68 68 69 69 70 72 74 73 71 69 67
33 13 3 9 10 13 14 14 17 21 25 27 31 34 39 41 44 48 50 53 58 63 67 68 68 66 66 65 65 65 65 66 67 68 69 69 67 66
9 8 7 11 14 15 16 20 23 26 28 31 35 40 45 48 50 52 55 59 63 65 67 66 65 63 62 63 66 67 68 67 63 60 62 64 63 61
5 10 12 14 16 19 23 26 29 31 34 38 42 46 51 55 58 59 59 60 60 61 62 63 63 63 64 63 64 55 44 44 44 45 44 45 47 48
12 14 15 17 20 24 28 32 33 35 39 44 48 52 56 58 57 56 56 57 58 58 58 59 59 57 55 51 46 47 46 41 40 38 38 39 41 43
15 19 21 25 28 29 32 35 37 40 45 49 51 53 55 56 56 56 56 57 57 57 55 54 51 48 47 45 43 41 42 41 41 38 31 30 32 31
19 23 26 29 32 34 36 37 41 45 48 51 51 53 54 54 55 55 55 55 54 51 48 47 46 46 45 43 37 36 39 31 23 25 26 26 27 26